Weather in Nizhniy Unal

Russia / Republic of North Ossetia — Alania     42°51′33″N   44°08′50″E
temp.,
°C
wind,
m/s
gust,
m/s
humid.,
%
clouds,
%
prec.,
mm/h
press.,
hPa
HPBL,
m
7 march, sun
sun700:00−10ssw6868100 0.0 1017126
03:00−11ssw578897 0.0 1018113
06:00−14wsw129991 0.9 102271
09:00−10ssw349488 1.3 1022272
12:00−8sw469073 0.5 1021652
15:00−7sw578576 1.0 1020837
18:00−12ssw559363 0.1 102299
21:00−13s669061 0.1 1023108
8 march, mon
mon800:00−12s668157 0.0 102283
03:00−12s558848 0.1 102256
06:00−13s448845 0.2 102234
09:00−9s448759 0.5 1019304
12:00−7s3483100 0.6 1017544
15:00−8sw3389100 1.3 1016433
18:00−13ssw339598 0.3 101830
21:00−15ssw339186 0.4 102034
9 march, tue
tue900:00−16s348743 0.0 101936
03:00−17s448529 0.0 101943
06:00−17s558979 0.0 101959
09:00−13ssw578368 0.0 1018350
12:00−11sw677112 0.0 1016685
15:00−10sw67676 0.0 1016787
18:00−16ssw55870 0.0 101871
21:00−18ssw568823 0.0 102284
10 march, wed
wed1000:00−19s558437 0.0 102367
03:00−20s448518 0.0 102444
06:00−20s338835 0.0 102539
09:00−14ssw458538 0.1 1025339
12:00−10sw568242 0.1 1022564
15:00−10ssw468045 0.2 1021532
18:00−14s569357 0.1 1021108
21:00−15s778874 0.1 1021125
11 march, thu
thu1100:00−12s7886100 0.3 1019244
03:00−13s6687100 0.9 1018156
06:00−13s5589100 0.5 1016110
09:00−10s3490100 0.9 1014232
12:00−9sse039098 0.8 1011327
15:00−13n329699 4.6 1011264
18:00−16nnw2299100 2.9 1014169
21:00−18nne12100100 4.0 101793